Temperature
12 12 11 11 11 10 10 10 10 9 9 9 9 9 9 9 9 9 9 9 9 10 10 10 10 9 10 9 9 9 9 9 9 9 9 9 8 8 8 8 8 8 8
12 11 11 10 10 10 10 9 9 9 9 9 9 9 9 8 9 9 9 9 9 9 9 9 9 9 9 9 9 9 9 8 8 8 7 7 7 8 7 7 7 8 7
11 11 10 10 9 9 9 9 9 9 9 9 8 8 8 8 8 8 8 8 9 9 9 9 9 9 9 9 8 8 8 8 8 7 7 7 6 7 7 7 7 7 7
10 10 9 9 9 9 8 8 8 8 8 8 8 8 8 8 8 8 8 8 8 8 8 8 8 8 8 8 8 8 8 8 8 7 7 7 6 6 6 6 6 6 6
10 9 9 8 8 8 8 8 8 7 7 7 8 8 8 8 8 8 8 8 8 8 8 8 8 8 8 8 8 8 7 7 7 7 7 6 6 6 6 5 6 6 6
9 9 8 8 7 7 7 7 7 7 7 7 7 7 7 7 7 7 7 7 7 7 7 8 8 8 8 8 8 7 7 7 7 6 6 6 6 6 5 5 5 5 5
8 8 8 7 7 7 7 7 7 7 7 7 7 7 7 7 7 7 7 7 7 7 7 7 7 7 7 7 7 7 7 7 6 6 6 6 5 5 5 5 4 4 4
8 7 7 7 6 6 6 6 6 6 6 6 6 6 6 6 7 7 7 7 7 7 7 7 7 7 7 7 7 7 7 6 6 6 5 5 5 5 5 4 4 4 3
7 7 6 6 6 6 6 6 6 6 6 6 6 6 6 6 6 6 6 6 7 6 6 6 6 6 6 6 6 6 6 6 6 5 5 5 5 4 4 4 4 3 3
7 6 6 6 5 6 6 5 5 6 6 6 6 6 6 6 6 6 6 6 6 6 6 6 6 6 6 6 6 6 5 5 5 5 5 4 4 4 4 4 4 3 3
6 6 5 5 5 5 5 5 5 5 5 5 5 5 5 5 5 5 6 6 6 6 6 6 5 5 5 5 5 5 5 5 5 4 4 4 4 4 4 3 3 3 3
6 5 5 5 5 5 5 5 5 5 5 5 5 5 5 5 5 5 5 5 5 5 5 5 5 5 5 5 5 5 5 4 4 4 4 4 3 3 3 3 3 3 2
5 5 5 4 4 4 4 4 4 5 5 5 4 4 4 4 4 5 5 5 5 5 5 5 4 4 4 4 4 4 4 4 4 4 4 4 3 3 3 3 2 2 2
5 5 4 4 4 4 4 4 4 4 4 4 4 4 4 4 4 4 4 4 4 4 4 4 4 4 4 4 4 4 4 4 4 4 3 3 3 3 3 2 2 2 2
5 4 4 4 4 4 4 4 4 4 4 4 4 4 4 4 4 4 4 4 4 4 4 4 4 4 4 3 3 3 3 3 3 3 3 3 2 2 2 2 2 2 1
4 4 4 3 3 3 3 3 4 3 3 3 3 3 3 3 3 3 3 3 3 3 3 3 3 3 3 3 3 3 3 3 3 3 2 2 2 2 2 2 1 1 1
4 3 3 3 3 3 3 3 3 3 3 3 3 3 3 3 3 3 3 3 3 3 3 3 3 3 3 3 3 2 2 2 2 2 2 2 1 1 1 1 1 1 1
3 3 3 3 3 3 3 3 3 2 2 2 2 3 3 3 3 3 3 3 2 2 2 2 2 2 2 2 2 2 2 2 2 2 2 1 1 1 1 1 1 1 0
3 2 2 3 3 2 2 2 2 2 2 2 2 2 2 2 2 2 2 2 2 2 2 2 2 2 2 2 2 1 1 1 1 1 1 1 1 1 0 0 0 0 0
2 2 2 2 2 2 2 2 2 2 2 2 2 2 2 2 2 2 2 2 1 1 1 1 1 1 1 1 1 1 1 1 1 1 1 0 0 0 -0 -0 -0 -0 -0
1 1 2 2 2 2 1 1 1 1 1 1 1 1 1 1 1 1 1 1 1 1 1 1 1 1 1 1 1 1 1 1 0 0 0 -0 -0 -0 -1 -1 -1 -1 -1
1 1 1 1 1 1 1 1 1 1 1 1 1 1 1 1 1 1 0 0 0 0 0 0 0 0 0 0 0 0 0 0 -0 -0 -0 -0 -1 -1 -1 -1 -1 -1 -1
0 0 1 1 1 1 0 0 0 0 0 0 0 0 0 0 0 0 0 -0 -0 -0 -0 -0 -0 -0 -0 -0 -0 -0 -0 -1 -1 -1 -1 -1 -1 -1 -1 -1 -2 -2 -2
-0 -0 -0 -0 0 -0 -0 -0 -0 -0 -0 -0 -0 0 0 -0 -0 -0 -0 -0 -1 -1 -1 -1 -1 -1 -1 -1 -1 -1 -1 -1 -1 -1 -1 -2 -2 -2 -2 -2 -2 -2 -2
-1 -1 -1 -1 -1 -1 -0 -0 -1 -1 -0 -0 -0 -0 -0 -1 -1 -1 -1 -1 -1 -1 -1 -1 -1 -1 -1 -1 -1 -1 -1 -1 -2 -2 -2 -2 -2 -2 -2 -2 -3 -3 -3
-1 -1 -1 -1 -1 -1 -1 -1 -1 -1 -1 -1 -1 -1 -1 -1 -1 -1 -1 -1 -1 -1 -2 -2 -2 -2 -2 -2 -2 -2 -2 -2 -2 -3 -3 -3 -3 -3 -3 -3 -3 -3 -3
Wind_Speed
5 4 5 5 5 5 6 6 5 5 5 5 5 5 4 4 4 4 5 6 5 5 4 2 3 3 2 1 2 2 2 1 1 2 1 2 1 0 0 1 2 2 1
3 4 5 5 5 5 6 6 6 6 6 5 5 4 4 3 4 3 4 6 6 6 4 3 3 3 2 2 2 3 2 1 1 1 1 0 1 2 1 0 1 1 1
4 3 4 5 5 5 5 6 6 6 6 5 4 4 3 3 3 4 4 4 5 6 5 4 3 3 3 3 3 3 3 2 0 0 2 1 1 1 1 1 1 1 0
3 3 3 4 4 4 4 5 6 6 6 6 6 6 6 5 4 4 4 4 5 6 6 5 4 3 3 3 3 3 3 3 2 0 0 1 1 1 1 2 1 1 1
3 3 3 3 3 3 4 4 5 5 5 6 7 6 4 3 3 4 5 5 4 5 6 6 5 4 3 3 3 2 2 3 3 2 0 1 1 1 1 2 2 2 2
3 3 3 3 2 2 3 4 5 5 5 6 6 6 6 4 5 5 5 4 3 3 4 5 5 4 4 4 4 4 3 3 2 2 1 1 1 1 1 2 2 2 3
3 3 3 3 3 3 3 3 5 5 5 6 6 6 6 6 6 6 6 5 4 3 4 4 4 4 4 4 3 4 4 3 3 3 2 2 1 1 1 1 2 2 2
3 3 3 2 2 3 3 3 4 4 5 6 6 6 6 5 4 5 5 5 4 4 4 4 4 4 4 4 4 3 4 3 3 3 3 2 1 1 1 1 1 2 2
3 3 3 2 2 3 3 3 3 4 4 5 5 5 5 5 4 4 4 4 4 4 5 5 4 4 4 4 4 3 4 4 3 3 3 2 2 2 1 1 1 2 3
3 2 2 2 2 3 3 3 3 3 3 4 4 4 5 5 5 5 5 4 4 4 5 5 5 5 4 5 4 3 3 4 3 3 3 3 2 2 1 2 1 2 3
2 2 2 2 1 2 2 3 3 3 3 4 4 4 4 4 4 5 5 5 4 5 6 5 5 5 5 5 5 4 4 5 4 4 4 4 3 2 2 2 2 2 2
1 1 1 1 1 1 2 2 3 3 4 4 4 4 4 4 4 4 4 4 4 4 5 5 5 5 5 5 5 5 4 5 5 5 4 3 2 2 2 1 2 2 2
1 1 1 0 1 1 2 2 2 3 4 4 4 4 4 4 4 4 4 4 4 4 4 5 5 5 5 5 5 5 4 4 5 5 5 4 3 3 2 2 2 2 2
1 1 1 1 1 1 2 2 2 2 3 3 4 4 4 4 4 4 4 4 4 4 4 5 4 4 4 4 4 4 4 4 4 4 4 4 4 4 3 3 2 2 1
1 1 1 1 1 1 1 2 2 2 3 3 3 3 3 3 3 3 3 4 4 4 4 4 4 3 4 4 4 5 5 4 4 4 4 4 4 5 4 3 3 2 2
2 2 1 1 1 1 1 1 2 2 3 3 3 3 3 3 3 4 4 4 4 4 4 4 4 4 3 4 5 4 4 4 4 4 3 3 4 4 4 4 4 4 3
3 3 2 2 1 2 2 2 2 2 3 3 3 3 3 3 4 4 4 4 4 4 4 4 4 4 4 5 5 5 3 4 4 4 3 3 3 3 3 3 4 3 4
3 2 2 2 1 1 1 2 2 2 3 3 3 3 3 4 4 4 4 4 4 4 4 4 4 4 4 6 6 5 3 3 3 4 4 4 4 3 3 3 2 2 3
2 2 2 2 1 1 2 2 2 2 3 3 3 3 3 4 4 4 4 4 3 4 4 4 5 5 5 6 6 5 3 3 3 3 3 4 4 4 4 2 2 2 3
2 2 2 1 1 2 2 2 2 3 3 3 3 3 3 4 4 4 4 3 4 4 4 4 4 5 5 6 6 5 3 3 3 3 3 4 4 5 4 3 3 3 3
2 2 2 1 1 1 2 3 3 3 3 2 2 2 3 3 4 4 3 4 3 3 3 3 3 4 5 6 7 6 4 4 3 3 3 3 5 5 5 4 3 4 3
3 2 1 1 1 0 2 2 3 2 2 2 2 2 3 3 3 4 3 4 4 4 4 3 3 3 4 5 6 7 6 4 3 3 3 3 5 5 5 4 4 4 3
3 2 1 1 1 1 1 2 3 2 2 2 2 2 2 2 3 4 4 4 4 4 3 3 3 3 3 3 5 6 6 4 2 2 4 4 4 4 3 4 4 3 2
2 2 2 1 2 1 1 2 2 1 2 2 2 2 2 2 3 3 3 4 4 4 4 4 3 3 2 3 3 3 3 3 2 2 2 3 3 2 2 2 2 2 2
2 2 2 2 3 1 1 1 1 2 2 2 2 2 2 3 3 3 3 3 4 5 4 4 4 4 4 5 5 3 3 2 3 1 1 1 1 1 1 1 1 1 1
2 2 2 2 2 2 2 2 2 2 2 2 2 2 2 2 2 2 1 2 3 4 4 4 4 3 4 4 4 4 4 3 3 1 1 2 2 2 2 2 2 2 2
Wind_Direction
213 187 169 167 160 159 165 166 167 168 164 164 166 166 170 163 154 150 149 151 152 146 135 129 128 128 135 142 129 113 106 91 87 68 21 341 312 204 152 118 100 95 80
202 170 160 160 163 166 167 165 171 177 174 171 173 170 162 158 153 144 146 150 151 152 154 149 151 149 145 140 136 125 121 114 97 120 112 353 342 343 299 189 168 137 102
206 181 169 166 168 174 174 176 171 178 176 165 152 150 137 134 150 158 160 157 157 157 154 156 152 156 158 166 162 154 142 158 233 144 144 151 221 303 288 246 201 182 202
181 179 163 155 168 174 170 169 171 180 177 169 167 172 173 174 176 168 164 160 161 161 159 160 158 158 157 166 171 165 156 154 176 268 287 183 173 169 290 303 288 250 250
168 174 161 150 155 155 160 168 168 171 171 173 171 174 175 168 152 157 161 164 166 166 163 165 164 167 167 171 168 161 156 165 170 173 196 307 321 213 197 261 289 308 294
135 146 142 131 130 135 156 165 170 173 174 177 174 175 177 169 162 166 167 166 164 169 167 169 169 171 168 170 174 169 170 178 173 166 152 170 194 242 229 250 273 284 287
115 119 120 127 141 149 168 181 179 177 179 181 179 180 178 178 178 172 171 168 170 181 183 174 172 172 172 172 170 169 178 180 180 181 185 194 215 240 243 240 271 283 286
120 125 132 136 146 154 167 182 183 182 182 180 178 180 179 184 182 175 172 175 178 181 173 173 174 176 175 174 171 176 184 184 184 188 188 195 217 219 226 218 246 293 290
122 138 141 140 148 155 166 179 173 173 179 175 173 181 178 181 178 174 170 169 170 169 169 172 175 180 176 173 171 184 186 181 186 188 193 197 208 209 219 207 184 204 271
120 127 145 150 155 159 164 169 174 181 178 168 174 178 175 178 175 166 172 171 170 167 170 176 179 183 182 179 181 187 190 184 190 189 192 200 211 210 206 205 219 215 232
137 132 129 145 148 144 152 168 178 182 176 171 173 175 177 174 168 169 172 173 176 172 174 178 183 190 192 188 185 189 187 191 192 194 196 202 200 204 214 218 233 245 240
116 119 115 119 130 148 157 174 184 186 183 174 174 178 174 167 167 169 170 169 174 173 170 173 186 192 192 188 185 189 190 192 194 197 195 204 205 207 208 213 237 251 251
125 117 98 112 166 175 174 180 184 179 176 172 173 171 171 169 168 169 169 169 172 174 174 178 189 194 192 191 189 188 188 194 196 194 195 201 193 207 214 218 233 253 274
162 178 178 261 244 207 198 186 186 169 167 166 170 175 176 174 173 173 171 172 171 177 184 184 189 193 193 191 187 184 188 197 200 197 195 197 198 204 205 218 224 238 262
261 225 223 245 251 255 214 184 177 170 163 165 172 181 174 164 165 172 177 175 176 185 186 179 184 184 185 187 186 190 194 197 203 203 200 201 203 213 213 217 213 213 230
296 275 258 247 235 236 211 186 183 181 169 171 179 179 168 167 172 180 179 177 181 180 174 177 180 182 193 198 203 197 191 194 201 204 209 205 204 221 230 231 230 223 220
293 280 261 241 232 224 200 198 194 171 167 175 180 183 179 180 184 181 178 185 186 175 178 182 185 193 203 208 210 210 192 193 203 203 207 219 221 216 208 226 238 244 250
289 288 280 270 241 200 186 178 169 162 165 178 187 190 186 187 181 181 187 191 185 185 187 191 196 195 209 212 216 215 198 195 206 206 205 205 210 217 211 209 226 238 251
283 281 274 258 240 205 174 163 176 169 173 190 197 198 192 188 183 189 193 192 191 197 195 194 198 198 206 207 209 214 198 203 214 213 203 201 207 224 225 209 219 242 265
329 313 298 263 229 213 163 168 193 187 197 204 205 201 195 190 194 200 201 197 199 201 197 201 202 199 204 209 207 205 190 204 216 216 211 218 223 230 228 211 210 232 251
326 316 300 288 263 223 174 187 202 206 208 199 201 204 199 199 198 201 206 194 198 196 198 204 209 204 207 209 208 204 194 205 210 214 216 223 232 237 239 239 229 238 250
319 321 312 303 300 238 182 207 226 207 184 187 204 215 211 209 202 195 205 198 192 194 199 203 214 210 201 203 212 215 220 221 206 214 217 226 231 239 246 249 239 244 258
309 322 310 300 299 258 198 220 240 194 179 185 206 219 217 211 205 201 205 200 193 195 201 201 210 209 200 205 217 221 225 230 229 225 226 229 227 236 243 237 238 231 217
300 306 298 279 282 281 244 229 234 190 176 195 211 212 209 211 210 208 208 201 198 200 203 205 210 210 203 196 197 207 216 227 243 245 234 232 230 231 231 225 231 221 219
293 290 282 272 270 280 268 243 218 184 197 210 214 213 212 206 209 214 215 214 213 205 206 206 202 201 212 220 220 209 206 206 214 213 215 209 198 210 223 239 231 219 219
293 296 295 285 274 272 270 249 206 188 200 219 222 221 214 211 206 210 228 227 220 220 222 223 219 219 221 219 216 217 217 216 207 185 213 223 220 217 223 234 243 231 228
Height
1460 1462 1463 1464 1466 1468 1470 1471 1473 1476 1479 1481 1483 1486 1488 1491 1493 1495 1497 1499 1500 1501 1503 1504 1506 1508 1509 1510 1510 1511 1513 1514 1514 1515 1515 1517 1518 1518 1518 1519 1519 1520 1520
1456 1458 1459 1461 1462 1464 1466 1468 1469 1472 1475 1477 1480 1483 1486 1488 1490 1492 1494 1496 1497 1499 1500 1502 1504 1505 1507 1507 1508 1509 1510 1511 1513 1513 1514 1514 1516 1515 1516 1516 1517 1517 1517
1453 1455 1456 1457 1459 1460 1462 1464 1466 1469 1472 1474 1477 1480 1483 1485 1487 1489 1491 1493 1494 1496 1497 1499 1501 1502 1504 1505 1505 1506 1507 1509 1510 1511 1513 1513 1512 1513 1513 1514 1514 1514 1514
1449 1452 1453 1454 1456 1457 1459 1461 1464 1466 1468 1471 1473 1476 1478 1480 1482 1485 1487 1489 1491 1493 1494 1496 1498 1499 1500 1502 1503 1504 1505 1506 1507 1508 1510 1511 1511 1511 1510 1511 1511 1511 1511
1447 1449 1451 1452 1453 1455 1457 1458 1461 1462 1464 1467 1470 1472 1475 1477 1480 1482 1484 1486 1488 1490 1491 1493 1494 1496 1497 1499 1500 1501 1502 1503 1504 1505 1506 1507 1508 1509 1509 1507 1507 1508 1508
1445 1447 1448 1450 1451 1452 1454 1455 1458 1459 1461 1464 1467 1469 1471 1474 1476 1478 1481 1483 1485 1486 1488 1489 1491 1493 1494 1495 1496 1498 1499 1500 1501 1502 1503 1504 1505 1505 1506 1505 1504 1504 1504
1443 1445 1446 1447 1448 1449 1451 1453 1455 1456 1458 1460 1463 1466 1469 1471 1473 1475 1477 1479 1481 1483 1484 1486 1488 1489 1491 1492 1493 1494 1495 1497 1498 1499 1500 1501 1502 1503 1503 1503 1501 1501 1501
1442 1443 1444 1445 1446 1447 1449 1450 1452 1454 1456 1458 1460 1463 1465 1467 1470 1472 1474 1476 1478 1480 1481 1483 1484 1486 1487 1489 1490 1491 1492 1493 1494 1495 1496 1498 1498 1499 1500 1500 1499 1498 1497
1441 1442 1443 1444 1445 1445 1446 1448 1449 1451 1453 1455 1457 1459 1462 1464 1466 1468 1471 1472 1474 1476 1478 1479 1481 1482 1484 1485 1486 1487 1488 1489 1491 1492 1493 1494 1495 1496 1496 1496 1497 1497 1495
1441 1442 1442 1442 1443 1443 1444 1446 1447 1449 1450 1452 1454 1456 1458 1461 1463 1465 1467 1469 1471 1473 1474 1476 1477 1479 1480 1481 1483 1484 1485 1486 1487 1488 1489 1490 1491 1492 1493 1493 1493 1493 1493
1440 1440 1441 1441 1441 1441 1442 1443 1445 1446 1448 1449 1451 1453 1455 1458 1460 1462 1464 1466 1468 1469 1471 1472 1474 1475 1477 1478 1479 1480 1482 1483 1484 1485 1486 1487 1488 1488 1488 1489 1489 1489 1489
1439 1440 1440 1440 1439 1440 1440 1441 1443 1444 1445 1447 1449 1451 1453 1455 1457 1459 1461 1462 1464 1466 1467 1469 1470 1472 1473 1474 1476 1476 1478 1479 1480 1481 1482 1483 1484 1484 1485 1485 1485 1486 1485
1438 1438 1438 1438 1438 1438 1438 1439 1440 1442 1443 1445 1446 1448 1450 1452 1453 1455 1457 1459 1460 1462 1464 1465 1467 1468 1470 1471 1472 1473 1474 1475 1476 1477 1478 1479 1480 1480 1481 1481 1482 1482 1482
1437 1437 1437 1437 1436 1436 1436 1437 1438 1439 1440 1442 1443 1445 1447 1449 1450 1452 1454 1455 1457 1458 1460 1461 1463 1465 1466 1467 1469 1470 1471 1472 1473 1473 1474 1475 1476 1476 1477 1477 1478 1478 1478
1435 1435 1435 1435 1434 1434 1434 1435 1435 1437 1438 1439 1441 1442 1444 1446 1447 1449 1450 1452 1453 1455 1456 1458 1459 1461 1462 1463 1465 1466 1467 1468 1469 1469 1470 1471 1472 1472 1473 1473 1474 1474 1474
1434 1433 1433 1433 1432 1432 1432 1432 1433 1434 1435 1436 1438 1440 1441 1443 1444 1446 1447 1449 1450 1451 1453 1454 1455 1457 1458 1459 1461 1462 1463 1463 1464 1465 1466 1467 1467 1468 1469 1470 1470 1471 1470
1432 1432 1431 1431 1430 1430 1430 1430 1431 1432 1433 1434 1435 1437 1438 1439 1441 1442 1444 1445 1446 1448 1449 1450 1452 1453 1454 1456 1457 1458 1459 1459 1460 1461 1462 1462 1463 1464 1465 1465 1466 1466 1466
1430 1430 1429 1429 1429 1428 1428 1428 1429 1429 1430 1431 1433 1434 1435 1436 1437 1438 1440 1441 1443 1444 1445 1446 1448 1449 1450 1452 1453 1454 1455 1456 1456 1457 1458 1459 1459 1460 1461 1461 1462 1462 1462
1427 1427 1427 1426 1426 1426 1426 1426 1426 1427 1428 1429 1430 1431 1432 1432 1433 1435 1436 1437 1439 1440 1441 1442 1444 1445 1446 1448 1449 1450 1451 1451 1452 1453 1454 1454 1455 1456 1457 1457 1457 1457 1458
1425 1424 1424 1423 1423 1424 1424 1424 1424 1424 1425 1426 1427 1428 1428 1429 1430 1431 1432 1434 1435 1436 1437 1438 1440 1441 1442 1444 1445 1446 1446 1447 1448 1449 1449 1450 1451 1452 1453 1453 1453 1453 1453
1422 1421 1421 1420 1420 1421 1421 1421 1421 1422 1423 1423 1424 1425 1425 1426 1427 1428 1429 1430 1431 1432 1433 1434 1436 1437 1438 1440 1441 1442 1442 1443 1444 1444 1445 1446 1447 1448 1449 1449 1449 1449 1449
1418 1418 1418 1417 1418 1418 1418 1418 1418 1419 1420 1420 1421 1422 1422 1423 1424 1425 1426 1427 1427 1428 1429 1430 1431 1433 1434 1436 1437 1438 1439 1440 1440 1440 1441 1442 1443 1444 1444 1444 1444 1445 1445
1416 1415 1415 1415 1415 1415 1415 1415 1416 1416 1417 1417 1418 1418 1419 1420 1421 1422 1422 1423 1424 1424 1425 1426 1427 1428 1430 1432 1433 1434 1435 1436 1436 1437 1438 1438 1439 1440 1440 1440 1440 1441 1441
1413 1412 1412 1412 1411 1412 1412 1412 1412 1413 1413 1414 1414 1415 1416 1417 1417 1418 1419 1419 1420 1420 1421 1422 1424 1425 1426 1428 1429 1430 1431 1432 1433 1434 1434 1435 1435 1436 1436 1436 1436 1437 1438
1409 1409 1409 1408 1408 1408 1408 1409 1409 1409 1410 1410 1411 1412 1412 1413 1414 1414 1415 1416 1416 1417 1418 1419 1420 1421 1422 1424 1425 1426 1427 1428 1429 1429 1430 1431 1431 1431 1432 1432 1433 1433 1434
1406 1406 1405 1405 1405 1405 1405 1405 1406 1406 1406 1406 1407 1408 1408 1409 1410 1410 1411 1412 1413 1414 1415 1416 1418 1418 1420 1421 1422 1423 1424 1425 1425 1426 1426 1426 1427 1427 1428 1428 1429 1430 1430